Home   Weather   Adak   Past weeks

Flag for USA Past Weather in Adak, Alaska, USA — Yesterday and Last 2 Weeks

Now
36 °F

Mostly cloudy.


Feels Like: 25 °F
Forecast: 33 / 42 °F
Wind: 20 mph from South

Location: Adak

Current Time: Feb 21, 2017 at 7:03:42 am

Latest Report: Feb 21, 2017 at 6:16 am


Visibility: 10 mi

Pressure: 29.49 "Hg

Humidity: 56%

Dew Point: 21 °F

Location of AdakLocation

Past Weather in Adak — Graph

°F

Adak Temperature Yesterday

Maximum temperature yesterday: 39 °F (at 3:16 am)
Minimum temperature yesterday: 34 °F (at 12:16 am)
Average temperature yesterday: 36 °F

High & Low Weather Summary for the Past Weeks

 TemperatureHumidityPressure
High41 °F (Feb 8, 12:36 pm)81% (Feb 6, 3:16 pm)29.95 "Hg (Feb 6, 3:16 pm)
Low23 °F (Feb 16, 11:36 pm)43% (Feb 14, 8:36 am)29.09 "Hg (Feb 14, 3:56 pm)
Average33 °F63%29.50 "Hg
* Reported Feb 6 5:36 am — Feb 21 5:36 am, Adak, Weather by CustomWeather, © 2017

Note: Actual official high and low records may vary slightly from our data, if they occured in-between our weather recording intervals... More about our weather records

Advertising

Adak Weather History for the Previous 24 Hours

Scroll right to see more
 ConditionsComfort  
Time TempWeatherWind HumidityBarometerVisibility
5:36 am
Tue, Feb 21
34 °FPassing clouds.12 mph56%29.48 "Hg10 mi
4:56 am36 °FOvercast.14 mph56%29.49 "Hg10 mi
4:16 am34 °FPassing clouds.16 mph60%29.48 "Hg10 mi
3:36 am34 °FClear.20 mph56%29.47 "Hg10 mi
2:56 am34 °FPartly cloudy.25 mph65%29.48 "Hg9 mi
2:16 am34 °FPassing clouds.17 mph60%29.46 "Hg10 mi
1:56 am34 °FPartly cloudy.26 mph60%29.45 "Hg10 mi
1:36 am34 °FPartly cloudy.15 mph60%29.44 "Hg8 mi
12:56 am30 °FPassing clouds.6 mph69%29.43 "Hg10 mi
12:16 am36 °FPartly cloudy.26 mph56%29.41 "Hg10 mi
11:36 pm
Mon, Feb 20
36 °FPartly cloudy.23 mph56%29.40 "Hg10 mi
10:56 pm34 °FPassing clouds.16 mph60%29.39 "Hg10 mi
10:36 pm34 °FPassing clouds.15 mph60%29.38 "Hg10 mi
9:56 pm36 °FPartly cloudy.17 mph56%29.37 "Hg10 mi
9:16 pm34 °FPassing clouds.17 mph60%29.35 "Hg10 mi
8:56 pm34 °FPassing clouds.16 mph65%29.34 "Hg10 mi
8:16 pm34 °FPassing clouds.16 mph65%29.33 "Hg10 mi
7:56 pm34 °FClear.15 mph60%29.32 "Hg10 mi
7:36 pm34 °FPassing clouds.17 mph60%29.32 "Hg10 mi
6:56 pm36 °FPassing clouds.16 mph56%29.31 "Hg10 mi
6:16 pm34 °FPassing clouds.12 mph60%29.30 "Hg10 mi
5:56 pm36 °FBroken clouds.21 mph56%29.30 "Hg4 mi
5:36 pm36 °FBroken clouds.15 mph60%29.29 "Hg10 mi
4:56 pm36 °FBroken clouds.12 mph65%29.28 "Hg5 mi
4:36 pm37 °FScattered clouds.14 mph52%29.28 "Hg10 mi
3:56 pm37 °FPartly sunny.17 mph52%29.27 "Hg10 mi
3:16 pm37 °FScattered clouds.18 mph52%29.27 "Hg10 mi
2:56 pm37 °FScattered clouds.15 mph56%29.27 "Hg10 mi
2:16 pm37 °FScattered clouds.13 mph52%29.27 "Hg10 mi
1:56 pm37 °FBroken clouds.15 mph60%29.27 "Hg10 mi
1:16 pm39 °FMostly cloudy.20 mph56%29.26 "Hg9 mi
12:56 pm37 °FOvercast.16 mph60%29.26 "Hg10 mi
12:16 pm37 °FMore clouds than sun.12 mph60%29.26 "Hg10 mi
11:56 am37 °FMore clouds than sun.15 mph60%29.26 "Hg8 mi
11:16 am37 °FOvercast.12 mph56%29.26 "Hg10 mi
10:56 am37 °FOvercast.13 mph60%29.25 "Hg9 mi
10:16 am37 °FBroken clouds.14 mph60%29.24 "Hg10 mi
9:36 am37 °FPartly sunny.15 mph60%29.22 "Hg10 mi
8:56 am37 °FMostly cloudy.13 mph56%29.22 "Hg10 mi
8:36 am37 °FOvercast.18 mph56%29.22 "Hg10 mi
7:56 am37 °FOvercast.14 mph56%29.22 "Hg10 mi
7:16 am37 °FOvercast.17 mph65%29.22 "Hg10 mi
Weather by CustomWeather, © 2017

See weather overviewHow to use our weather pages